Location: Unspecified
(41.5000°N, 0.0000°E)
Time: 23:47:46
(UTC+00:00)

deb Explorer IX - Visible Passes

Search period start: 01 October 2020 00:00
Search period end: 11 October 2020 00:00
Orbit: 538 x 1105 km, 38.8° (Epoch: 01 October)

Date Brightness Start Highest point End Pass type
(mag) Time Alt. Az. Time Alt. Az. Time Alt. Az.
01 Oct ? 19:15:29 10° W 19:19:53 55° S 19:20:53 43° SE visible
02 Oct ? 18:52:17 10° W 18:56:51 56° S 18:58:58 27° ESE visible
02 Oct ? 20:39:39 10° W 20:40:15 13° WSW 20:40:15 13° WSW visible
03 Oct ? 18:29:04 10° W 18:33:47 56° S 18:37:04 16° ESE visible
03 Oct ? 20:16:30 10° W 20:18:21 19° WSW 20:18:21 19° WSW visible
04 Oct ? 18:05:50 10° W 18:10:42 57° S 18:14:58 10° ESE visible
04 Oct ? 19:53:20 10° W 19:56:29 24° SW 19:56:29 24° SW visible
05 Oct ? 19:30:08 10° W 19:33:53 25° SSW 19:34:40 23° S visible
06 Oct ? 19:06:55 10° W 19:10:48 25° SSW 19:12:55 18° SSE visible
07 Oct ? 18:43:39 10° W 18:47:43 26° SSW 18:51:14 11° SSE visible
08 Oct ? 18:20:22 10° W 18:24:37 26° SSW 18:28:23 10° SSE visible
09 Oct ? 17:57:04 10° W 18:01:29 27° SSW 18:05:24 10° SSE visible
